Weather History for 78774 - November, 2012

Change the Weather History Date:

Monday, November 12, 2012

  Actual Average Record
Temperature  
Mean Temperature 80 °F -  
Max Temperature 91 °F 86 °F - ()
Min Temperature 70 °F 72 °F - ()
Cooling Degree Days 16    
Growing Degree Days 30 (Base 50)    
Moisture  
Dew Point 69 °F    
Average Humidity 62    
Maximum Humidity 94    
Minimum Humidity 42    
Precipitation  
Precipitation 0.00 in - - ()
Sea Level Pressure  
Sea Level Pressure 29.83 in    
Wind  
Wind Speed 7 mph ()    
Max Wind Speed 16 mph    
Max Gust Speed -    
Visibility 7.7 miles    
Events      
T = Trace of Precipitation, MM = Missing Value Source: Averaged Metar Reports

Daily Weather History Graph

Daily Weather History Graph

Search for Another Location

Airport or City:

Trip Planner

Search our weather history database for the weather conditions in past years. The results will help you decide how hot, cold, wet, or windy it might be!

Date:

Astronomy

Nov. 12, 2012 Rise Set
Actual Time 5:36 AM CST 5:16 PM CST
Civil Twilight 5:14 AM CST 5:38 PM CST
Nautical Twilight 4:49 AM CST 6:03 PM CST
Astronomical Twilight 4:23 AM CST 6:29 PM CST
Moon 4:11 AM CST (11/12) 4:15 PM CST (11/12)
Length of Visible Light 12h 23m
Length of Day
11h 39m
Waning Crescent, 2% of the Moon is Illuminated
Nov 12
Waning Crescent
Nov 13
New
Nov 20
First Quarter
Nov 28
Full
Dec 6
Last Quarter

Hourly Weather History & Observations

Time (CST) Temp. Heat Index Dew Point Humidity Pressure Visibility Wind Dir Wind Speed Gust Speed Precip Events Conditions
6:00 AM 72 °F - 69 °F 88% 29.88 in 12 mi SW 4.6 mph - -   Scattered Clouds
6:00 AM 71.6 °F - 69.8 °F 94% 29.86 in 6.2 mi SW 4.6 mph - N/A   Scattered Clouds
7:00 AM 77.0 °F - 71.6 °F 83% 29.89 in 6.2 mi South 4.6 mph - N/A   Scattered Clouds
8:00 AM 80.6 °F 84.6 °F 71.6 °F 74% 29.90 in 6.2 mi NW 4.6 mph - N/A   Scattered Clouds
9:00 AM 84 °F - 71 °F 56% 29.90 in 12 mi WNW 4.6 mph - -   Partly Cloudy
9:00 AM 84.2 °F 89.6 °F 71.6 °F 66% 29.89 in 6.2 mi WNW 4.6 mph - N/A   Scattered Clouds
10:00 AM 87.8 °F 93.8 °F 71.6 °F 58% 29.87 in 6.2 mi West 6.9 mph - N/A   Scattered Clouds
11:00 AM 87.8 °F 93.8 °F 71.6 °F 58% 29.84 in 6.2 mi WSW 9.2 mph - N/A   Scattered Clouds
12:00 PM 88 °F - 68 °F 43% 29.83 in 12 mi East 12.7 mph - -   Partly Cloudy
12:00 PM 87.8 °F 91.4 °F 68.0 °F 52% 29.82 in 6.2 mi East 12.7 mph - N/A   Scattered Clouds
1:00 PM 91.4 °F 95.4 °F 68.0 °F 46% 29.78 in 6.2 mi East 16.1 mph - N/A   Scattered Clouds
2:00 PM 87.8 °F 92.6 °F 69.8 °F 55% 29.78 in 6.2 mi East 16.1 mph - N/A   Scattered Clouds
3:00 PM 88 °F - 68 °F 42% 29.79 in 12 mi ENE 15.0 mph - -   Scattered Clouds
3:00 PM 87.8 °F 91.4 °F 68.0 °F 52% 29.77 in 6.2 mi ENE 15.0 mph - N/A   Scattered Clouds
4:00 PM 86.0 °F 90.4 °F 69.8 °F 58% 29.77 in 6.2 mi East 12.7 mph - N/A   Partly Cloudy
5:00 PM 84.2 °F 88.4 °F 69.8 °F 62% 29.79 in 6.2 mi ENE 12.7 mph - N/A   Partly Cloudy
6:00 PM 81 °F - 68 °F 56% 29.82 in 12 mi East 8.1 mph - -   Scattered Clouds
6:00 PM 80.6 °F 83.2 °F 68.0 °F 65% 29.81 in 6.2 mi East 8.1 mph - N/A   Partly Cloudy
7:00 PM 80.6 °F 83.2 °F 68.0 °F 65% 29.83 in 6.2 mi East 10.4 mph - N/A   Partly Cloudy
8:00 PM 80.6 °F 82.7 °F 66.2 °F 61% 29.86 in 6.2 mi East 9.2 mph - N/A   Partly Cloudy